SCP
0 0 0 0 0 0 0 0 0 0 0 0 0 0 0 0 0 0 1 1 1 0
0 0 0 0 0 0 0 0 0 0 0 0 0 0 0 0 0 0 0 1 1 1
0 0 0 0 0 0 0 0 0 0 0 0 0 0 0 0 0 0 0 0 0 0
0 0 0 0 0 0 0 0 0 0 0 0 0 0 0 0 0 0 0 0 0 0
0 0 0 0 0 0 0 0 0 0 0 0 0 0 0 0 0 0 0 0 0 0
0 0 0 0 0 0 0 0 0 0 0 0 0 0 -0 -0 0 0 0 0 0 0
0 0 0 0 0 0 0 0 0 0 0 0 0 -0 -0 0 -0 0 0 0 0 0
0 0 0 0 0 0 0 0 0 0 0 0 0 0 -0 -0 0 0 0 0 0 0
0 0 0 0 0 0 0 0 0 0 0 0 0 0 -0 -0 0 0 0 0 0 0
0 0 0 0 0 0 0 0 0 0 0 0 0 -0 -0 -0 0 0 0 0 0 0
0 0 0 0 0 0 0 0 0 0 0 0 0 -0 -0 -0 0 0 -0 0 0 0
0 0 0 0 0 0 0 0 0 -0 0 0 -0 -0 -0 -0 -0 -0 0 0 0 0
0 0 0 0 0 0 0 0 0 0 -0 -0 -0 -0 -0 -0 0 -0 0 0 0 0
0 0 0 0 0 0 0 0 0 -0 -0 0 -0 -0 -0 0 0 0 0 0 0 0
Wind_Speed_500mb
54 55 51 47 49 48 45 46 42 43 44 43 43 47 50 47 46 46 58 55 53 42
53 51 50 48 45 40 43 42 43 46 45 43 41 42 43 44 43 36 44 54 47 42
57 53 48 45 41 43 47 49 54 48 47 47 43 42 39 38 37 34 33 35 39 32
57 53 43 42 41 45 49 52 50 52 52 49 41 37 34 32 38 33 29 29 37 39
49 44 40 40 45 48 50 62 53 55 48 46 34 35 33 31 28 40 38 21 23 23
46 45 44 48 46 49 57 52 51 47 45 38 29 36 33 29 27 28 40 35 29 28
43 42 49 49 48 58 51 48 43 39 36 34 34 31 32 26 23 23 24 36 39 37
45 46 47 48 56 51 43 42 39 36 34 31 30 25 25 23 24 20 20 22 28 32
50 48 46 59 55 42 45 40 38 32 30 26 25 26 26 25 23 20 21 22 24 29
50 46 55 56 50 41 45 41 38 36 26 22 22 15 15 20 21 23 20 21 21 24
48 48 56 54 45 48 42 41 33 39 20 23 20 21 22 18 20 19 21 23 23 26
47 54 57 51 50 54 45 34 24 34 23 20 19 23 18 25 21 20 25 22 26 29
45 54 56 52 59 49 39 30 24 32 7 16 19 15 25 25 26 23 28 26 25 27
50 53 50 50 43 36 36 34 24 19 6 8 12 18 23 29 29 29 24 26 24 25
Wind_Direction_500mb
305 305 303 302 296 296 296 299 297 296 298 301 298 289 277 271 272 255 245 235 228 241
305 301 300 301 296 297 293 293 292 288 290 291 288 291 291 270 267 260 245 232 228 223
304 302 298 298 294 289 295 299 298 293 291 291 288 289 286 273 261 255 243 229 217 212
311 304 298 293 293 295 301 299 297 298 295 287 286 281 289 281 258 252 244 225 232 227
310 313 305 302 299 302 300 301 301 297 299 289 273 274 275 279 269 247 235 222 228 228
308 306 306 306 302 305 306 304 305 299 299 285 264 267 273 272 267 251 236 224 213 209
315 308 310 315 315 313 311 313 310 302 292 284 267 267 273 257 259 256 236 232 240 245
314 315 312 319 317 316 316 318 310 303 285 278 265 249 258 260 243 242 227 220 211 217
328 320 320 321 317 314 319 322 320 305 284 268 258 264 244 237 248 226 218 209 212 221
324 324 325 324 323 315 318 317 320 317 280 252 251 241 220 218 223 220 212 201 201 198
323 324 332 333 330 325 318 308 308 321 280 242 237 225 222 209 208 207 200 195 187 193
327 332 338 342 339 331 329 330 316 317 293 228 233 217 208 192 197 190 185 184 184 187
333 338 342 346 337 333 340 327 321 319 266 216 211 207 201 195 195 201 196 185 172 179
346 347 350 338 344 351 344 335 326 315 179 191 186 202 195 182 189 184 180 178 176 186
Wind_Speed_850mb
54 55 51 47 49 48 45 46 42 43 44 43 43 47 50 47 46 46 58 55 53 42
53 51 50 48 45 40 43 42 43 46 45 43 41 42 43 44 43 36 44 54 47 42
57 53 48 45 41 43 47 49 54 48 47 47 43 42 39 38 37 34 33 35 39 32
57 53 43 42 41 45 49 52 50 52 52 49 41 37 34 32 38 33 29 29 37 39
49 44 40 40 45 48 50 62 53 55 48 46 34 35 33 31 28 40 38 21 23 23
46 45 44 48 46 49 57 52 51 47 45 38 29 36 33 29 27 28 40 35 29 28
43 42 49 49 48 58 51 48 43 39 36 34 34 31 32 26 23 23 24 36 39 37
45 46 47 48 56 51 43 42 39 36 34 31 30 25 25 23 24 20 20 22 28 32
50 48 46 59 55 42 45 40 38 32 30 26 25 26 26 25 23 20 21 22 24 29
50 46 55 56 50 41 45 41 38 36 26 22 22 15 15 20 21 23 20 21 21 24
48 48 56 54 45 48 42 41 33 39 20 23 20 21 22 18 20 19 21 23 23 26
47 54 57 51 50 54 45 34 24 34 23 20 19 23 18 25 21 20 25 22 26 29
45 54 56 52 59 49 39 30 24 32 7 16 19 15 25 25 26 23 28 26 25 27
50 53 50 50 43 36 36 34 24 19 6 8 12 18 23 29 29 29 24 26 24 25
Wind_Direction_850mb
305 305 303 302 296 296 296 299 297 296 298 301 298 289 277 271 272 255 245 235 228 241
305 301 300 301 296 297 293 293 292 288 290 291 288 291 291 270 267 260 245 232 228 223
304 302 298 298 294 289 295 299 298 293 291 291 288 289 286 273 261 255 243 229 217 212
311 304 298 293 293 295 301 299 297 298 295 287 286 281 289 281 258 252 244 225 232 227
310 313 305 302 299 302 300 301 301 297 299 289 273 274 275 279 269 247 235 222 228 228
308 306 306 306 302 305 306 304 305 299 299 285 264 267 273 272 267 251 236 224 213 209
315 308 310 315 315 313 311 313 310 302 292 284 267 267 273 257 259 256 236 232 240 245
314 315 312 319 317 316 316 318 310 303 285 278 265 249 258 260 243 242 227 220 211 217
328 320 320 321 317 314 319 322 320 305 284 268 258 264 244 237 248 226 218 209 212 221
324 324 325 324 323 315 318 317 320 317 280 252 251 241 220 218 223 220 212 201 201 198
323 324 332 333 330 325 318 308 308 321 280 242 237 225 222 209 208 207 200 195 187 193
327 332 338 342 339 331 329 330 316 317 293 228 233 217 208 192 197 190 185 184 184 187
333 338 342 346 337 333 340 327 321 319 266 216 211 207 201 195 195 201 196 185 172 179
346 347 350 338 344 351 344 335 326 315 179 191 186 202 195 182 189 184 180 178 176 186